Chadron, NE

1:19 PM MDT on August 27, 2016 (GMT -0600)
Chadron Municipal

Weather History for KCDR - November, 2012

Change the Weather History Date:

Monday, November 12, 2012

  Actual Average Record
Temperature  
Mean Temperature 22 °F 36 °F  
Max Temperature 39 °F 50 °F 77 °F (1989)
Min Temperature 5 °F 21 °F -16 °F (1986)
Degree Days  
Heating Degree Days 43 29  
Month to date heating degree days 314 318  
Since 1 July heating degree days 985 1071  
Cooling Degree Days 0 0  
Month to date cooling degree days 0 0  
Year to date cooling degree days 1167 712  
Moisture  
Dew Point 15 °F    
Average Humidity 70    
Maximum Humidity 84    
Minimum Humidity 56    
Precipitation  
Precipitation 0.00 in 0.02 in 0.33 in (1929)
Month to date precipitation 0.14 0.31  
Year to date precipitation 7.40 17.22  
Sea Level Pressure  
Sea Level Pressure 30.36 in    
Wind  
Wind Speed 6 mph (SW)    
Max Wind Speed 22 mph    
Max Gust Speed 25 mph    
Visibility 10 miles    
Events      
T = Trace of Precipitation, MM = Missing Value Source: NWS Daily Summary

Daily Weather History Graph

Daily Weather History Graph

Search for Another Location

Airport or City:

Trip Planner

Search our weather history database for the weather conditions in past years. The results will help you decide how hot, cold, wet, or windy it might be!

Date:

Astronomy

Nov. 12, 2012 Rise Set
Actual Time 6:41 AM MST 4:31 PM MST
Civil Twilight 6:10 AM MST 5:01 PM MST
Nautical Twilight 5:36 AM MST 5:35 PM MST
Astronomical Twilight 5:03 AM MST 6:09 PM MST
Moon 5:08 AM MST (11/12) 3:38 PM MST (11/12)
Length of Visible Light 10h 50m
Length of Day
9h 50m
Waning Crescent, 2% of the Moon is Illuminated
Nov 12
Waning Crescent
Nov 13
New
Nov 20
First Quarter
Nov 28
Full
Dec 6
Last Quarter

Hourly Weather History & Observations

Time (MST) Temp. Windchill Dew Point Humidity Pressure Visibility Wind Dir Wind Speed Gust Speed Precip Events Conditions
12:53 AM 15.1 °F 0.5 °F 7.0 °F 70% 30.32 in 10.0 mi West 13.8 mph - N/A   Clear
1:53 AM 19.0 °F 4.5 °F 8.1 °F 62% 30.31 in 10.0 mi WNW 16.1 mph - N/A   Clear
2:53 AM 16.0 °F 10.4 °F 6.1 °F 65% 30.33 in 10.0 mi SSW 3.5 mph - N/A   Clear
3:53 AM 12.9 °F 2.6 °F 5.0 °F 71% 30.36 in 10.0 mi West 6.9 mph - N/A   Clear
5:53 AM 6.1 °F -2.8 °F 1.0 °F 80% 30.40 in 10.0 mi South 4.6 mph - N/A   Clear
6:53 AM 6.1 °F -5.6 °F -0.0 °F 76% 30.43 in 9.0 mi WSW 6.9 mph - N/A   Clear
7:53 AM 9.0 °F 2.4 °F 1.9 °F 73% 30.43 in 9.0 mi SW 3.5 mph - N/A   Clear
8:53 AM 17.1 °F - 8.1 °F 68% 30.43 in 9.0 mi Calm Calm - N/A   Clear
9:53 AM 26.1 °F 18.4 °F 14.0 °F 60% 30.40 in 10.0 mi West 6.9 mph - 0.02 in   Clear
10:53 AM 28.0 °F 24.2 °F 16.0 °F 61% 30.40 in 10.0 mi SW 3.5 mph - 0.05 in   Clear
11:53 AM 33.1 °F 27.7 °F 19.0 °F 56% 30.36 in 10.0 mi South 5.8 mph - 0.01 in   Clear
12:53 PM 35.1 °F 28.6 °F 23.0 °F 61% 30.34 in 10.0 mi South 8.1 mph - N/A   Clear
1:53 PM 37.9 °F 34.4 °F 24.1 °F 57% 30.31 in 10.0 mi SSW 4.6 mph - N/A   Clear
2:53 PM 37.0 °F 30.4 °F 25.0 °F 62% 30.32 in 9.0 mi South 9.2 mph - N/A   Clear
3:53 PM 36.0 °F - 26.1 °F 67% 30.33 in 10.0 mi Calm Calm - N/A   Clear
4:53 PM 32.0 °F 26.4 °F 25.0 °F 75% 30.35 in 10.0 mi WSW 5.8 mph - N/A   Clear
5:53 PM 27.0 °F 20.5 °F 21.9 °F 81% 30.37 in 10.0 mi West 5.8 mph - N/A   Clear
6:53 PM 26.1 °F 19.4 °F 19.9 °F 78% 30.38 in 10.0 mi West 5.8 mph - N/A   Clear
7:53 PM 21.9 °F 13.4 °F 18.0 °F 85% 30.38 in 10.0 mi SW 6.9 mph - N/A   Clear
8:53 PM 21.9 °F 14.5 °F 18.0 °F 85% 30.37 in 10.0 mi WSW 5.8 mph - N/A   Clear
9:53 PM 24.1 °F 19.7 °F 18.0 °F 77% 30.35 in 10.0 mi SSW 3.5 mph - N/A   Clear
10:53 PM 21.9 °F - 17.1 °F 82% 30.34 in 10.0 mi Calm Calm - N/A   Clear
11:53 PM 19.9 °F - 15.1 °F 81% 30.32 in 10.0 mi Calm Calm - N/A   Clear